EW2175 Weather Reports


time (UTC)temp
C
wind
direction
speed
KPH
gust
KPH
rain 1hr
cm
rain 24hr
cm
rain mn
cm
humidity
%
barometer
mb
20260906191554 23 29 0.0 0.0 0.00 0.00 0.00 55 1019.9
20260906190054 23 78 0.0 4.8 0.00 0.00 0.00 53 1019.9
20260906184554 25 21 0.0 0.0 0.00 0.00 0.00 49 1020.0
20260906183102 25 19 0.0 0.0 0.00 0.00 0.00 47 1019.9
20260906181556 25 19 0.0 0.0 0.00 0.00 0.00 45 1019.8
20260906180112 26 19 0.0 0.0 0.00 0.00 0.00 44 1019.7
20260906174613 27 349 0.0 1.6 0.00 0.00 0.00 42 1019.7
20260906173053 27 7 0.0 0.0 0.00 0.00 0.00 41 1019.8
20260906171608 28 357 0.0 4.8 0.00 0.00 0.00 41 1019.8
20260906170059 28 352 0.0 3.2 0.00 0.00 0.00 39 1019.8
20260906164549 29 335 0.0 8.0 0.00 0.00 0.00 39 1019.8
20260906163048 30 346 1.6 6.4 0.00 0.00 0.00 37 1019.7
20260906161612 30 353 3.2 9.7 0.00 0.00 0.00 37 1019.9
20260906160048 30 19 1.6 8.0 0.00 0.00 0.00 36 1019.8
20260906154549 31 344 3.2 9.7 0.00 0.00 0.00 34 1019.9
20260906153105 31 293 0.0 8.0 0.00 0.00 0.00 34 1020.1
20260906151543 30 327 0.0 6.4 0.00 0.00 0.00 35 1020.2
20260906150042 30 350 0.0 9.7 0.00 0.00 0.00 35 1020.3
20260906144541 30 315 4.8 12.9 0.00 0.00 0.00 35 1020.4
20260906143039 30 343 3.2 14.5 0.00 0.00 0.00 36 1020.5
20260906141547 30 330 0.0 16.1 0.00 0.00 0.00 36 1020.6
20260906140037 30 321 0.0 9.7 0.00 0.00 0.00 35 1020.6
20260906134535 31 337 0.0 6.4 0.00 0.00 0.00 35 1020.8
20260906133035 31 274 1.6 12.9 0.00 0.00 0.00 35 1020.9
20260906131529 30 28 1.6 9.7 0.00 0.00 0.00 35 1021.2
20260906130027 30 316 0.0 6.4 0.00 0.00 0.00 35 1021.3
20260906124524 30 39 0.0 6.4 0.00 0.00 0.00 36 1021.6
20260906123023 30 346 0.0 9.7 0.00 0.00 0.00 36 1021.9
20260906121531 28 352 0.0 9.7 0.00 0.00 0.00 39 1022.1
20260906120014 28 262 6.4 14.5 0.00 0.00 0.00 39 1022.2
20260906114525 27 304 0.0 8.0 0.00 0.00 0.00 40 1022.4
20260906113010 26 331 3.2 12.9 0.00 0.00 0.00 41 1022.5
20260906111509 26 322 3.2 12.9 0.00 0.00 0.00 42 1022.6
20260906110007 26 2 4.8 14.5 0.00 0.00 0.00 41 1022.6
20260906104505 26 330 1.6 6.4 0.00 0.00 0.00 39 1022.8
20260906103002 26 334 3.2 9.7 0.00 0.00 0.00 41 1023.0
20260906101605 25 348 0.0 9.7 0.00 0.00 0.00 44 1023.2
20260906100054 23 322 0.0 4.8 0.00 0.00 0.00 51 1023.3
20260906094558 23 275 0.0 6.4 0.00 0.00 0.00 52 1023.6
20260906093049 22 230 0.0 6.4 0.00 0.00 0.00 54 1023.7
20260906091542 21 204 0.0 4.8 0.00 0.00 0.00 57 1023.9
20260906090048 21 270 1.6 6.4 0.00 0.00 0.00 60 1024.0
20260906084535 20 299 0.0 4.8 0.00 0.00 0.00 62 1024.0
20260906083028 18 217 1.6 6.4 0.00 0.00 0.00 65 1024.0
20260906081524 17 244 4.8 14.5 0.00 0.00 0.00 67 1024.2
20260906080023 17 290 0.0 8.0 0.00 0.00 0.00 69 1024.1
20260906074516 16 258 0.0 6.4 0.00 0.00 0.00 71 1024.1
20260906073015 15 339 0.0 0.0 0.00 0.00 0.00 74 1024.0
20260906071512 15 339 0.0 4.8 0.00 0.00 0.00 76 1024.0
20260906070004 13 15 0.0 0.0 0.00 0.00 0.00 79 1024.1
20260906064504 13 7 0.0 4.8 0.00 0.03 0.00 81 1024.2
20260906063100 12 17 0.0 6.4 0.00 0.03 0.00 81 1024.5
20260906061600 12 16 0.0 6.4 0.00 0.03 0.00 82 1024.4
20260906060134 12 15 0.0 0.0 0.00 0.03 0.00 83 1024.5
20260906054607 12 17 0.0 0.0 0.00 0.03 0.00 83 1024.1
20260906053054 12 17 0.0 0.0 0.00 0.03 0.00 83 1024.0
20260906051550 12 18 0.0 0.0 0.00 0.03 0.00 82 1024.0
20260906050050 12 19 0.0 0.0 0.00 0.03 0.00 81 1023.7
20260906044549 12 24 0.0 0.0 0.00 0.03 0.00 80 1023.8
20260906043050 12 21 0.0 0.0 0.00 0.03 0.00 80 1023.9
20260906041546 13 24 0.0 0.0 0.00 0.03 0.00 80 1023.7
20260906040042 13 25 0.0 0.0 0.00 0.03 0.00 78 1023.5
20260906034554 13 25 0.0 0.0 0.00 0.05 0.00 79 1023.6
20260906033041 13 25 0.0 0.0 0.00 0.05 0.00 78 1023.6
20260906031537 13 25 0.0 0.0 0.00 0.05 0.00 78 1023.6
20260906030036 14 33 0.0 0.0 0.00 0.05 0.00 76 1023.7
20260906024536 14 33 0.0 0.0 0.00 0.05 0.00 76 1023.8
20260906023031 15 33 0.0 0.0 0.00 0.05 0.00 76 1023.8
20260906021537 15 33 0.0 0.0 0.00 0.05 0.00 75 1023.6
20260906020027 15 33 0.0 0.0 0.00 0.05 0.00 76 1023.4
20260906014525 15 33 0.0 6.4 0.00 0.05 0.00 74 1023.3
20260906013023 16 29 1.6 9.7 0.00 0.05 0.00 74 1023.4
20260906011521 16 86 0.0 4.8 0.00 0.05 0.00 74 1023.4
20260906010020 16 51 1.6 6.4 0.00 0.05 0.00 74 1023.4
20260906004518 16 33 1.6 6.4 0.00 0.05 0.00 74 1023.5
20260906003016 16 44 4.8 14.5 0.00 0.05 0.00 74 1023.5
20260906001528 16 38 1.6 12.9 0.00 0.05 0.00 74 1023.5
20260906000013 17 69 0.0 12.9 0.00 0.05 0.00 73 1023.5
20260905234511 17 108 3.2 9.7 0.00 0.05 0.00 74 1023.6
20260905233014 17 40 1.6 11.3 0.00 0.05 0.00 74 1023.6
20260905231514 17 38 3.2 8.0 0.00 0.05 0.00 74 1023.5
20260905230006 17 49 0.0 4.8 0.00 0.05 0.00 73 1023.5
20260905224506 17 74 0.0 9.7 0.00 0.05 0.00 73 1023.5
20260905223005 17 73 0.0 6.4 0.00 0.05 0.00 72 1023.5
20260905221603 17 90 1.6 9.7 0.00 0.05 0.00 71 1023.6
20260905220100 18 59 0.0 6.4 0.00 0.05 0.00 71 1023.6
20260905214557 18 51 0.0 4.8 0.00 0.05 0.05 70 1023.6
20260905213054 18 54 0.0 8.0 0.00 0.05 0.05 69 1023.4
20260905211554 18 7 0.0 0.0 0.00 0.05 0.05 69 1023.3
20260905210110 19 7 0.0 0.0 0.00 0.05 0.05 69 1023.3
20260905204553 19 7 0.0 0.0 0.00 0.05 0.05 69 1023.3
20260905203052 20 2 0.0 8.0 0.00 0.05 0.05 67 1023.1
20260905201550 20 73 0.0 6.4 0.00 0.05 0.05 65 1022.8
20260905200111 20 86 0.0 6.4 0.00 0.05 0.05 64 1022.5
20260905194546 20 37 0.0 9.7 0.00 0.05 0.05 64 1022.4
20260905193045 21 62 0.0 4.8 0.00 0.05 0.05 63 1022.2